Regional Weather Roundup
Issued by NWS

Home | Current Version | Previous Version | Graphics & Text | Print | Product List | Glossary On
Versions: 1 2 3 4 5 6 7 8 9 10 11 12 13 14 15 16 17 18 19 20 21 22 23 24 25 26 27 28 29 30 31 32 33 34 35 36 37 38 39 40 41 42 43 44 45 46 47 48 49 50
139
ASUS43 KMPX 190410
RWRMN
WEATHER ROUNDUP FOR MINNESOTA
NATIONAL WEATHER SERVICE TWIN CITIES/CHANHASSEN MN
1000 PM CST SAT NOV 18 2017


NOTE: "FAIR" INDICATES FEW OR NO CLOUDS BELOW 12,000 FEET WITH NO
SIGNIFICANT WEATHER AND/OR OBSTRUCTIONS TO VISIBILITY. N/A MEANS
CURRENT SKY AND/OR WEATHER CONDITIONS ARE NOT AVAILABLE.

MNZ060>063-068>070-190500-
   Twin Cities Metro

CITY           SKY/WX    TMP DP  RH WIND       PRES   REMARKS
TWIN CITIES    CLEAR     22  13  68 NW18      30.03R WCI   7
ST PAUL        CLEAR     21  11  65 NW16G23   30.05R WCI   7
CRYSTAL        CLEAR     21   9  59 NW15G23   30.03R WCI   8
BLAINE         CLEAR     21  12  68 NW15      30.02R WCI   8
LAKEVILLE      CLEAR     19  12  73 NW14      30.02S WCI   6
EDEN PRAIRIE   CLEAR     23  12  62 NW12      30.03R WCI  12
SOUTH ST PAUL  CLEAR     22  11  63 NW15G21   30.03R WCI   9
LAKE ELMO      FAIR      21  14  73 NW13G22   30.02R WCI   9
$$
MNZ001>005-007-008-013>017-022>024-027-028-190500-
   Northwest Minnesota

CITY           SKY/WX    TMP DP  RH WIND       PRES   REMARKS
BEMIDJI        CLOUDY    12   7  81 W8        29.98R WCI   0
HALLOCK        CLOUDY     9   3  78 CALM      30.01S
ROSEAU         CLEAR     12   7  79 W8        29.98R WCI   1
WARROAD        CLEAR      9   5  85 W9        29.96S WCI  -5
THIEF RVR FALL CLEAR     10   7  87 W10       30.01S WCI  -4
CROOKSTON      CLEAR     12   7  79 NW7       30.05S WCI   2
FOSSTON        PTCLDY    10   7  85 W6        30.01R WCI   1
DETROIT LAKES  CLOUDY    18  10  73 W6        30.02F WCI   9
MOORHEAD       CLEAR     12   7  79 CALM      30.07S
PARK RAPIDS    CLOUDY    15   8  73 W8        29.98F WCI   4
MAHNOMEN       FAIR      13   8  79 W7        30.02R WCI   3
$$
MNZ006-009>011-018-025>026-190500-
   North Central Minnesota

CITY           SKY/WX    TMP DP  RH WIND       PRES   REMARKS
BAUDETTE       CLEAR     11   5  77 W7        29.94S WCI   0
FLAG ISLAND    CLEAR      9   5  85 W10       29.94R WCI  -6
INTL FALLS     CLOUDY    15   7  70 W14       29.92S WCI   0
WASKISH        CLEAR     12   9  85 W10G16    29.97S WCI  -1
BIG FORK       MOCLDY    14   7  73 W3        29.94S
LONGVILLE      CLOUDY    16   9  73 W10       29.97F WCI   3
GRAND RAPIDS   FLURRIES  14   8  77 NW12      29.96F WCI   0
CRANE LAKE     FLURRIES  14   9  79 CALM      29.92F
ORR            FLURRIES  14   7  73 W8        29.88F WCI   3
COOK           FLURRIES  14   9  79 W8        29.91F WCI   3
WALKER         FAIR      13   7  79 W7        29.98S WCI   2
$$
MNZ012-019>021-037-190500-
   Northeast Minnesota

CITY           SKY/WX    TMP DP  RH WIND       PRES   REMARKS
DULUTH         FLURRIES  16   9  74 NW13G20   29.90R WCI   2
ELY            CLOUDY    14   7  73 NW9G16    29.89S WCI   2
HIBBING        CLOUDY    14   8  77 NW10      29.92S WCI   1
EVELETH        FLURRIES  14   7  73 NW12G17   29.94R WCI   0
DULUTH HARBOR  FLURRIES  21  14  73 NW13G21   29.97R WCI   9
TWO HARBORS    FLURRIES  19  10  68 NW7       29.89S WCI  10
SILVER BAY     FLURRIES  18  10  73 NW5       29.88R WCI  11
GRAND MARAIS     N/A     23  12  62 W8        29.88R WCI  14
G MARAIS ARPRT LGT SNOW  16   7  67 NW7G21    29.78S WCI   6
$$
MNZ029>031-032-039>041-046>048-054>057-064-190500-
   West Central Minnesota

CITY           SKY/WX    TMP DP  RH WIND       PRES   REMARKS
FERGUS FALLS   CLEAR     10   7  85 W7        30.10S WCI   0
WHEATON        CLEAR     16   9  73 W5        30.12S WCI   9
MORRIS         CLOUDY    18   9  68 NW8       30.07F WCI   7
ALEXANDRIA     PTCLDY    17   9  70 W8        30.04S WCI   7
ELBOW LAKE     FAIR      14   9  80 NW6       30.07F HAZE    WCI   5
WADENA         CLOUDY    16   9  73 NW12      30.00F WCI   3
GLENWOOD       CLEAR     18  10  73 NW10      30.05S WCI   6
APPLETON       CLEAR     16   9  73 W5        30.11R WCI   9
BENSON         CLEAR     18   9  68 N10       30.10R WCI   6
ORTONVILLE     CLEAR     18  10  73 MISG      30.10S
MADISON        CLEAR     19  14  79 W6        30.11F WCI  11
WILLMAR        FAIR      19  12  73 NW12      30.08S WCI   7
$$
MNZ033>034-036-042>043-049>051-058-059-190500-
   Central Minnesota

CITY           SKY/WX    TMP DP  RH WIND       PRES   REMARKS
ST CLOUD       CLEAR     19  11  70 NW20G28   30.03R WCI   3
SAUK CENTRE    FAIR      18  10  68 NW14      30.05R WCI   5
PAYNESVILLE    CLEAR     19  13  74 NW12G17   30.06S WCI   7
AITKIN         CLOUDY    16   7  67 NW7       29.97F WCI   6
PINE RIVER     CLOUDY    14   9  79 CALM      30.01F
BRAINERD       PTCLDY    17   8  67 NW10G20   30.00F WCI   5
STAPLES        PTCLDY    16   9  73 W10       30.00F WCI   3
LONG PRAIRIE   FAIR      18  10  73 W9        30.03S WCI   6
LITTLE FALLS   CLEAR     19   5  53 NW8       30.04S WCI   9
LITCHFIELD     CLEAR     21  12  68 NW12G20   30.06R WCI   9
BUFFALO        CLEAR     21  11  66 W9        30.05R WCI  10
MAPLE LAKE     CLEAR     22  12  66 NW17      30.05R WCI   7
HUTCHINSON     CLOUDY    21  14  75 W7        30.07R WCI  12
$$
MNZ037-044-045-052-053-190500-
   East Central Minnesota

CITY           SKY/WX    TMP DP  RH WIND       PRES   REMARKS
PRINCETON      CLEAR     19  12  73 NW8       30.02S WCI   9
MORA           MOCLDY    19  10  68 NW10G17   30.01S WCI   8
CAMBRIDGE      CLEAR     19  10  68 W13       30.02R WCI   7
RUSH CITY      PTCLDY    19  12  74 W7        30.01R WCI  10
MOOSE LAKE     CLOUDY    19  10  68 NW10G21   29.96R WCI   8
HINCKLEY       FAIR      19  12  73 NW8       29.98R WCI   9
CLOQUET        FLURRIES  18   9  68 NW10G17   29.93R WCI   6
MCGREGOR       CLOUDY    18  12  79 NW9       29.98R WCI   6
$$
MNZ071>073-080-081-089-090-097-098-190500-
   Southwest Minnesota

CITY           SKY/WX    TMP DP  RH WIND       PRES   REMARKS
MONTEVIDEO     CLEAR     19  10  68 N12       30.10S WCI   7
GRANITE FALLS  CLEAR     18  13  80 W8        30.12R WCI   8
CANBY          CLEAR     22  15  72 NW9       30.12S WCI  12
MARSHALL       CLEAR     19  12  74 NW9       30.11R WCI   8
REDWOOD FALLS  CLEAR     22   9  57 NW12      30.09R WCI  10
OLIVIA         CLEAR     21  12  68 NW10      30.08S WCI  10
PIPESTONE      CLEAR     21  14  73 NW9       30.09R WCI  11
WINDOM           N/A     21   7  53 NW10      30.08R WCI  10
WORTHINGTON    CLEAR     19  14  81 NW8       30.09R WCI   9
JACKSON        CLEAR     21  12  68 CALM      30.09R
SLAYTON        PTCLDY    19  13  79 NW7       30.09S WCI   9
$$
MNZ065>067-074>077-082>085-091>093-190500-
   South Central Minnesota

CITY           SKY/WX    TMP DP  RH WIND       PRES   REMARKS
MANKATO        CLEAR     21  13  71 NW15      30.07R WCI   8
NEW ULM        CLEAR     21  10  63 NW17      30.07S WCI   7
ST JAMES       CLEAR     21  12  68 NW13      30.09S WCI   9
FAIRMONT       CLEAR     22  14  71 NW14G20   30.09  WCI   9
GLENCOE        CLEAR     23  13  67 NW17      30.05R WCI   9
FARIBAULT      CLEAR     21  14  73 W9G16     30.03R WCI  11
OWATONNA       CLEAR     21  16  79 NW15      30.02R WCI   8
WASECA         CLEAR     23  16  74 NW13      30.05S WCI  11
ALBERT LEA     CLEAR     21  12  68 NW12G20   30.03R WCI   9
$$
MNZ078>079-086>088-094>096-190500-
   Southeast Minnesota

CITY           SKY/WX    TMP DP  RH WIND       PRES   REMARKS
ROCHESTER      PTCLDY    22  16  78 NW20      29.97S WCI   7
RED WING       CLEAR     23  10  58 NW10G21   30.00R WCI  12
STANTON        CLEAR     23  13  66 NW10G20   30.01R WCI  13
DODGE CENTER   PTCLDY    21  14  73 NW14G22   29.99R WCI   8
WINONA           N/A     30  19  64 NW13G23   29.98R WCI  20
AUSTIN         CLEAR     21  14  73 NW16G22   30.00S WCI   7
PRESTON        CLOUDY    24  17  74 NW15G22   29.96R WCI  11
$$
ABBREVIATIONS USED IN REMARKS
   TC - TEMPERATURES IN CELSIUS
  WCI - WIND CHILL INDEX
   HX - HEAT INDEX
  VSB - VISIBILITY
$$




USA.gov is the U.S. government's official web portal to all federal, state and local government web resources and services.